SAA325 FAOR-FACT

Flight info

Callsign SAA325
Flight time 1h 49m
Altitude 38000
Route RAGUL3A RAGUL DCT UTEBA DCT APMIN DCT EVESI DCT EGNOM DCT NOKOX DCT ERDAS ERDAS1C
Aircraft A332/H-SDE3GHIJ2J3J5M1RVWXY/LB2D1

Departure

Time 2026-05-05 10:42
Airport O.R. Tambo International Airport (FAOR)

Arrival

Time 2026-05-05 12:32
Airport Cape Town International Airport (FACT)
Time Latitude Longitude Altitude Speed Heading
2026-05-05 10:19 -26.13290 28.23308 5576 ft 0 kts 277°
2026-05-05 10:32 -26.13291 28.23314 5576 ft 2 kts 277°
2026-05-05 10:32 -26.13293 28.23329 5576 ft 2 kts 277°
2026-05-05 10:33 -26.13295 28.23343 5575 ft 1 kts 277°
2026-05-05 10:33 -26.13296 28.23359 5574 ft 2 kts 277°
2026-05-05 10:33 -26.13298 28.23368 5574 ft 1 kts 277°
2026-05-05 10:33 -26.13296 28.23383 5573 ft 2 kts 243°
2026-05-05 10:34 -26.13291 28.23392 5572 ft 2 kts 221°
2026-05-05 10:34 -26.13278 28.23399 5571 ft 0 kts 188°
2026-05-05 10:34 -26.13274 28.23400 5571 ft 0 kts 187°
2026-05-05 10:37 -26.13280 28.23399 5571 ft 6 kts 187°
2026-05-05 10:37 -26.13371 28.23386 5575 ft 13 kts 188°
2026-05-05 10:37 -26.13451 28.23374 5577 ft 10 kts 188°
2026-05-05 10:37 -26.13518 28.23365 5578 ft 9 kts 186°
2026-05-05 10:38 -26.13596 28.23354 5579 ft 12 kts 188°
2026-05-05 10:38 -26.13693 28.23340 5580 ft 15 kts 187°
2026-05-05 10:38 -26.13809 28.23327 5580 ft 18 kts 189°
2026-05-05 10:38 -26.13945 28.23286 5580 ft 22 kts 196°
2026-05-05 10:39 -26.14092 28.23240 5584 ft 21 kts 196°
2026-05-05 10:39 -26.14213 28.23203 5588 ft 15 kts 192°
2026-05-05 10:39 -26.14323 28.23217 5587 ft 17 kts 165°
2026-05-05 10:39 -26.14427 28.23247 5587 ft 12 kts 166°
2026-05-05 10:40 -26.14486 28.23285 5586 ft 7 kts 118°
2026-05-05 10:40 -26.14490 28.23296 5585 ft 0 kts 104°
2026-05-05 10:40 -26.14490 28.23346 5583 ft 12 kts 83°
2026-05-05 10:41 -26.14472 28.23449 5576 ft 11 kts 76°
2026-05-05 10:41 -26.14421 28.23503 5572 ft 5 kts 20°
2026-05-05 10:41 -26.14416 28.23505 5572 ft 0 kts 19°
2026-05-05 10:41 -26.14388 28.23515 5571 ft 16 kts 17°
2026-05-05 10:42 -26.13404 28.23819 5550 ft 131 kts 15°
2026-05-05 10:42 -26.12370 28.24142 5583 ft 177 kts 16°
2026-05-05 10:42 -26.11261 28.24499 6362 ft 165 kts 16°
2026-05-05 10:43 -26.10180 28.24821 6979 ft 165 kts 14°
2026-05-05 10:43 -26.09061 28.25146 7546 ft 170 kts 15°
2026-05-05 10:43 -26.07928 28.25464 8176 ft 170 kts 14°
2026-05-05 10:43 -26.06709 28.25798 8542 ft 194 kts
2026-05-05 10:44 -26.05383 28.25538 8879 ft 220 kts 332°
2026-05-05 10:44 -26.04248 28.24317 9105 ft 247 kts 295°
2026-05-05 10:44 -26.03973 28.22381 9303 ft 276 kts 261°
2026-05-05 10:44 -26.04250 28.20263 9737 ft 290 kts 270°
2026-05-05 10:45 -26.04046 28.18008 10378 ft 301 kts 278°
2026-05-05 10:45 -26.03783 28.15629 10722 ft 325 kts 276°
2026-05-05 10:45 -26.03578 28.13129 11118 ft 347 kts 275°
2026-05-05 10:45 -26.03371 28.10517 11810 ft 351 kts 275°
2026-05-05 10:46 -26.03173 28.07941 12591 ft 354 kts 275°
2026-05-05 10:46 -26.02969 28.05227 13456 ft 358 kts 275°
2026-05-05 10:46 -26.02902 28.02508 14320 ft 363 kts 263°
2026-05-05 10:46 -26.03702 27.99856 15180 ft 367 kts 238°
2026-05-05 10:47 -26.05308 27.97676 16025 ft 372 kts 225°
2026-05-05 10:47 -26.07117 27.95676 16852 ft 376 kts 224°
2026-05-05 10:47 -26.08980 27.93689 17668 ft 381 kts 223°
2026-05-05 10:47 -26.10930 27.91684 18453 ft 385 kts 222°
2026-05-05 10:48 -26.12893 27.89715 19206 ft 390 kts 221°
2026-05-05 10:48 -26.14901 27.87708 19952 ft 394 kts 222°
2026-05-05 10:48 -26.16943 27.85671 20680 ft 399 kts 221°
2026-05-05 10:48 -26.19004 27.83622 21389 ft 403 kts 221°
2026-05-05 10:49 -26.21058 27.81590 22068 ft 407 kts 222°
2026-05-05 10:49 -26.23174 27.79492 22738 ft 411 kts 221°
2026-05-05 10:49 -26.25294 27.77383 23391 ft 415 kts 221°
2026-05-05 10:49 -26.27461 27.75229 24032 ft 419 kts 221°
2026-05-05 10:50 -26.29604 27.73089 24639 ft 423 kts 221°
2026-05-05 10:50 -26.31776 27.70931 25230 ft 427 kts 221°
2026-05-05 10:50 -26.33996 27.68724 25817 ft 431 kts 221°
2026-05-05 10:50 -26.36218 27.66512 26380 ft 435 kts 221°
2026-05-05 10:51 -26.38453 27.64283 26932 ft 438 kts 221°
2026-05-05 10:51 -26.40699 27.62047 27465 ft 442 kts 221°
2026-05-05 10:51 -26.42967 27.59777 28028 ft 440 kts 222°
2026-05-05 10:51 -26.45158 27.57550 28563 ft 439 kts 222°
2026-05-05 10:52 -26.47358 27.55228 29102 ft 438 kts 223°
2026-05-05 10:52 -26.49527 27.52916 29626 ft 437 kts 223°
2026-05-05 10:52 -26.51283 27.51045 30042 ft 437 kts 224°
2026-05-05 10:52 -26.53450 27.48732 30545 ft 436 kts 223°
2026-05-05 10:53 -26.55582 27.46464 31030 ft 435 kts 223°
2026-05-05 10:53 -26.57744 27.44155 31513 ft 434 kts 223°
2026-05-05 10:53 -26.59881 27.41865 31979 ft 433 kts 224°
2026-05-05 10:53 -26.62051 27.39539 32441 ft 432 kts 224°
2026-05-05 10:54 -26.64158 27.37279 32877 ft 431 kts 223°
2026-05-05 10:54 -26.66296 27.34995 33303 ft 430 kts 223°
2026-05-05 10:54 -26.68404 27.32709 33720 ft 429 kts 224°
2026-05-05 10:54 -26.70492 27.30437 34121 ft 429 kts 224°
2026-05-05 10:55 -26.72630 27.28126 34518 ft 428 kts 224°
2026-05-05 10:55 -26.74770 27.25831 34901 ft 427 kts 224°
2026-05-05 10:55 -26.76895 27.23546 35272 ft 427 kts 224°
2026-05-05 10:55 -26.78999 27.21288 35626 ft 426 kts 224°
2026-05-05 10:56 -26.81093 27.19039 35968 ft 425 kts 224°
2026-05-05 10:56 -26.83197 27.16770 36296 ft 425 kts 224°
2026-05-05 10:56 -26.85321 27.14482 36611 ft 425 kts 224°
2026-05-05 10:56 -26.87410 27.12234 36901 ft 425 kts 224°
2026-05-05 10:57 -26.89485 27.10000 37184 ft 425 kts 224°
2026-05-05 10:57 -26.91613 27.07706 37458 ft 425 kts 224°
2026-05-05 10:57 -26.93721 27.05438 37723 ft 425 kts 224°
2026-05-05 10:57 -26.95811 27.03169 37973 ft 425 kts 224°
2026-05-05 10:58 -26.97902 27.00864 38003 ft 432 kts 225°
2026-05-05 10:58 -27.02239 26.96090 37997 ft 446 kts 224°
2026-05-05 10:59 -27.06692 26.91188 38007 ft 457 kts 224°
2026-05-05 10:59 -27.11190 26.86222 37995 ft 456 kts 224°
2026-05-05 11:00 -27.15676 26.81290 38003 ft 454 kts 224°
2026-05-05 11:00 -27.20142 26.76357 37999 ft 454 kts 225°
2026-05-05 11:01 -27.24624 26.71401 38002 ft 454 kts 224°
2026-05-05 11:01 -27.29088 26.66452 38000 ft 454 kts 224°
2026-05-05 11:02 -27.33558 26.61494 38002 ft 454 kts 224°
2026-05-05 11:02 -27.37996 26.56569 38000 ft 454 kts 224°
2026-05-05 11:03 -27.42453 26.51604 38002 ft 454 kts 224°
2026-05-05 11:03 -27.46871 26.46687 38002 ft 454 kts 224°
2026-05-05 11:04 -27.51308 26.41744 38000 ft 454 kts 224°
2026-05-05 11:04 -27.55707 26.36834 38001 ft 454 kts 224°
2026-05-05 11:05 -27.60135 26.31851 38000 ft 454 kts 225°
2026-05-05 11:05 -27.64543 26.26874 38000 ft 454 kts 225°
2026-05-05 11:06 -27.68993 26.21885 38002 ft 454 kts 225°
2026-05-05 11:06 -27.73428 26.16906 38001 ft 454 kts 225°
2026-05-05 11:07 -27.77864 26.11929 38001 ft 454 kts 225°
2026-05-05 11:07 -27.82285 26.06963 38001 ft 454 kts 225°
2026-05-05 11:08 -27.86737 26.01949 38001 ft 454 kts 225°
2026-05-05 11:08 -27.91220 25.96898 38001 ft 454 kts 224°
2026-05-05 11:09 -27.95650 25.91901 38000 ft 454 kts 225°
2026-05-05 11:09 -28.00102 25.86874 38001 ft 453 kts 225°
2026-05-05 11:10 -28.04537 25.81849 38001 ft 454 kts 225°
2026-05-05 11:10 -28.09003 25.76795 38000 ft 454 kts 224°
2026-05-05 11:11 -28.13446 25.71769 38000 ft 454 kts 225°
2026-05-05 11:11 -28.17871 25.66751 38002 ft 453 kts 225°
2026-05-05 11:12 -28.22274 25.61741 37999 ft 454 kts 225°
2026-05-05 11:12 -28.26715 25.56688 38002 ft 453 kts 225°
2026-05-05 11:13 -28.31125 25.51652 38000 ft 454 kts 225°
2026-05-05 11:13 -28.35530 25.46622 38002 ft 453 kts 225°
2026-05-05 11:14 -28.39955 25.41578 37999 ft 454 kts 225°
2026-05-05 11:14 -28.44375 25.36505 38001 ft 453 kts 225°
2026-05-05 11:15 -28.48737 25.31465 38000 ft 453 kts 226°
2026-05-05 11:15 -28.53125 25.26402 38000 ft 453 kts 225°
2026-05-05 11:16 -28.57503 25.21380 38001 ft 453 kts 225°
2026-05-05 11:16 -28.61888 25.16326 38001 ft 454 kts 225°
2026-05-05 11:17 -28.66294 25.11244 38001 ft 453 kts 225°
2026-05-05 11:17 -28.70624 25.06260 38001 ft 453 kts 225°
2026-05-05 11:18 -28.74928 25.01281 38000 ft 453 kts 225°
2026-05-05 11:18 -28.79281 24.96256 38001 ft 453 kts 225°
2026-05-05 11:19 -28.83614 24.91237 38000 ft 453 kts 225°
2026-05-05 11:19 -28.87944 24.86214 38001 ft 453 kts 225°
2026-05-05 11:20 -28.92298 24.81165 38001 ft 453 kts 225°
2026-05-05 11:20 -28.96631 24.76130 38000 ft 453 kts 225°
2026-05-05 11:21 -29.00966 24.71084 38001 ft 453 kts 225°
2026-05-05 11:21 -29.05353 24.65970 37999 ft 453 kts 225°
2026-05-05 11:22 -29.09721 24.60879 38003 ft 453 kts 225°
2026-05-05 11:22 -29.14078 24.55830 37999 ft 453 kts 225°
2026-05-05 11:23 -29.18459 24.50726 38003 ft 453 kts 226°
2026-05-05 11:23 -29.22831 24.45610 38002 ft 453 kts 225°
2026-05-05 11:24 -29.27199 24.40489 37999 ft 453 kts 225°
2026-05-05 11:24 -29.31521 24.35422 38002 ft 453 kts 225°
2026-05-05 11:25 -29.35867 24.30219 38001 ft 453 kts 226°
2026-05-05 11:25 -29.40187 24.25112 38000 ft 453 kts 225°
2026-05-05 11:26 -29.44540 24.19974 38000 ft 453 kts 226°
2026-05-05 11:26 -29.48912 24.14814 38000 ft 453 kts 226°
2026-05-05 11:27 -29.53235 24.09703 38000 ft 453 kts 226°
2026-05-05 11:27 -29.57609 24.04531 38001 ft 453 kts 226°
2026-05-05 11:28 -29.61911 23.99432 38002 ft 453 kts 225°
2026-05-05 11:28 -29.66274 23.94253 38001 ft 453 kts 226°
2026-05-05 11:29 -29.70610 23.89104 38000 ft 453 kts 226°
2026-05-05 11:29 -29.74961 23.83933 37999 ft 453 kts 226°
2026-05-05 11:30 -29.79332 23.78727 38003 ft 453 kts 226°
2026-05-05 11:30 -29.83676 23.73547 38000 ft 453 kts 226°
2026-05-05 11:31 -29.88016 23.68364 38002 ft 453 kts 226°
2026-05-05 11:31 -29.92360 23.63170 38002 ft 453 kts 226°
2026-05-05 11:32 -29.96675 23.58002 38001 ft 453 kts 225°
2026-05-05 11:32 -30.01033 23.52778 38000 ft 453 kts 226°
2026-05-05 11:33 -30.05365 23.47587 38001 ft 453 kts 226°
2026-05-05 11:33 -30.09704 23.42360 38002 ft 453 kts 226°
2026-05-05 11:34 -30.14049 23.37176 38000 ft 453 kts 225°
2026-05-05 11:34 -30.18337 23.31976 38001 ft 453 kts 227°
2026-05-05 11:35 -30.22635 23.26721 38001 ft 453 kts 226°
2026-05-05 11:35 -30.26975 23.21475 38000 ft 453 kts 226°
2026-05-05 11:36 -30.31269 23.16273 38001 ft 453 kts 226°
2026-05-05 11:36 -30.35593 23.11023 38001 ft 453 kts 226°
2026-05-05 11:37 -30.39879 23.05829 38000 ft 453 kts 226°
2026-05-05 11:37 -30.44181 23.00601 37999 ft 453 kts 226°
2026-05-05 11:38 -30.48489 22.95357 38002 ft 453 kts 226°
2026-05-05 11:38 -30.52787 22.90120 38000 ft 453 kts 226°
2026-05-05 11:39 -30.57064 22.84901 38000 ft 452 kts 226°
2026-05-05 11:39 -30.61403 22.79598 38002 ft 452 kts 226°
2026-05-05 11:40 -30.65693 22.74342 38001 ft 452 kts 226°
2026-05-05 11:40 -30.69989 22.69085 38001 ft 453 kts 226°
2026-05-05 11:41 -30.74311 22.63787 38001 ft 452 kts 226°
2026-05-05 11:41 -30.78561 22.58559 38001 ft 452 kts 226°
2026-05-05 11:42 -30.82885 22.53230 38000 ft 452 kts 226°
2026-05-05 11:42 -30.87142 22.47981 38001 ft 452 kts 226°
2026-05-05 11:43 -30.91419 22.42693 38000 ft 452 kts 226°
2026-05-05 11:43 -30.95724 22.37368 38001 ft 452 kts 226°
2026-05-05 11:44 -30.99986 22.32040 38000 ft 452 kts 227°
2026-05-05 11:44 -31.04229 22.26707 38002 ft 452 kts 227°
2026-05-05 11:45 -31.08524 22.21350 38000 ft 452 kts 227°
2026-05-05 11:45 -31.12810 22.16017 38000 ft 452 kts 226°
2026-05-05 11:46 -31.17103 22.10668 38001 ft 452 kts 227°
2026-05-05 11:46 -31.21334 22.05383 38000 ft 452 kts 226°
2026-05-05 11:47 -31.25627 22.00004 38002 ft 452 kts 227°
2026-05-05 11:47 -31.29888 21.94654 38000 ft 452 kts 227°
2026-05-05 11:48 -31.36268 21.86644 38001 ft 452 kts 227°
2026-05-05 11:48 -31.40495 21.81324 37999 ft 452 kts 227°
2026-05-05 11:49 -31.44758 21.75941 38003 ft 452 kts 227°
2026-05-05 11:49 -31.49023 21.70561 37998 ft 452 kts 227°
2026-05-05 11:50 -31.53258 21.65207 38004 ft 452 kts 226°
2026-05-05 11:50 -31.57502 21.59835 37999 ft 452 kts 227°
2026-05-05 11:51 -31.61714 21.54488 38002 ft 452 kts 226°
2026-05-05 11:51 -31.65984 21.49063 38000 ft 452 kts 227°
2026-05-05 11:52 -31.70202 21.43706 38003 ft 452 kts 227°
2026-05-05 11:52 -31.74461 21.38276 38000 ft 452 kts 227°
2026-05-05 11:53 -31.78650 21.32912 38000 ft 452 kts 228°
2026-05-05 11:53 -31.82755 21.27578 38002 ft 452 kts 227°
2026-05-05 11:54 -31.86997 21.22144 38001 ft 452 kts 227°
2026-05-05 11:54 -31.91183 21.16775 37999 ft 452 kts 227°
2026-05-05 11:55 -31.95396 21.11364 38001 ft 452 kts 227°
2026-05-05 11:55 -31.99586 21.05979 37999 ft 452 kts 227°
2026-05-05 11:56 -32.03838 21.00518 38001 ft 452 kts 227°
2026-05-05 11:56 -32.08015 20.95134 38002 ft 452 kts 227°
2026-05-05 11:57 -32.12202 20.89755 37999 ft 452 kts 227°
2026-05-05 11:57 -32.16439 20.84326 38002 ft 452 kts 227°
2026-05-05 11:58 -32.20603 20.78939 38000 ft 452 kts 227°
2026-05-05 11:58 -32.24837 20.73450 38002 ft 452 kts 227°
2026-05-05 11:59 -32.28984 20.68066 38001 ft 452 kts 227°
2026-05-05 11:59 -32.33154 20.62645 37999 ft 452 kts 227°
2026-05-05 12:00 -32.37300 20.57247 38003 ft 452 kts 227°
2026-05-05 12:00 -32.41323 20.51999 38006 ft 452 kts 227°
2026-05-05 12:01 -32.45449 20.46612 38005 ft 451 kts 227°
2026-05-05 12:01 -32.49561 20.41241 38007 ft 452 kts 227°
2026-05-05 12:02 -32.53651 20.35882 38004 ft 451 kts 227°
2026-05-05 12:02 -32.57582 20.30655 38006 ft 452 kts 229°
2026-05-05 12:03 -32.61588 20.25355 38002 ft 452 kts 228°
2026-05-05 12:03 -32.63583 20.22731 37680 ft 455 kts 228°
2026-05-05 12:03 -32.65592 20.20084 37120 ft 453 kts 228°
2026-05-05 12:04 -32.67675 20.17339 36571 ft 452 kts 228°
2026-05-05 12:04 -32.69746 20.14613 36044 ft 451 kts 228°
2026-05-05 12:04 -32.71811 20.11894 35520 ft 450 kts 228°
2026-05-05 12:04 -32.73867 20.09173 35003 ft 451 kts 228°
2026-05-05 12:05 -32.75941 20.06429 34480 ft 452 kts 228°
2026-05-05 12:05 -32.78036 20.03665 33954 ft 454 kts 228°
2026-05-05 12:05 -32.80109 20.00930 33428 ft 450 kts 228°
2026-05-05 12:05 -32.82168 19.98202 32900 ft 446 kts 228°
2026-05-05 12:06 -32.84157 19.95568 32396 ft 443 kts 228°
2026-05-05 12:06 -32.86179 19.92890 31891 ft 439 kts 228°
2026-05-05 12:06 -32.88126 19.90306 31398 ft 435 kts 227°
2026-05-05 12:06 -32.90136 19.87645 30891 ft 432 kts 228°
2026-05-05 12:07 -32.92131 19.84991 30391 ft 428 kts 227°
2026-05-05 12:07 -32.94033 19.82457 29909 ft 425 kts 228°
2026-05-05 12:07 -32.95969 19.79882 29425 ft 422 kts 227°
2026-05-05 12:07 -32.97901 19.77315 28938 ft 419 kts 228°
2026-05-05 12:08 -32.99805 19.74776 28456 ft 415 kts 228°
2026-05-05 12:08 -33.01714 19.72230 28036 ft 411 kts 228°
2026-05-05 12:08 -33.03578 19.69741 27731 ft 411 kts 228°
2026-05-05 12:08 -33.05464 19.67217 27283 ft 408 kts 228°
2026-05-05 12:09 -33.07338 19.64704 26831 ft 405 kts 228°
2026-05-05 12:09 -33.09171 19.62242 26389 ft 402 kts 228°
2026-05-05 12:09 -33.10947 19.59860 25960 ft 399 kts 228°
2026-05-05 12:09 -33.12761 19.57437 25519 ft 397 kts 228°
2026-05-05 12:10 -33.14572 19.55011 25075 ft 394 kts 228°
2026-05-05 12:10 -33.16362 19.52609 24640 ft 391 kts 228°
2026-05-05 12:10 -33.18129 19.50221 24204 ft 389 kts 228°
2026-05-05 12:10 -33.19903 19.47835 23770 ft 386 kts 228°
2026-05-05 12:11 -33.21628 19.45508 23344 ft 383 kts 228°
2026-05-05 12:11 -33.23409 19.43105 22904 ft 381 kts 228°
2026-05-05 12:11 -33.25149 19.40762 22472 ft 378 kts 228°
2026-05-05 12:11 -33.26848 19.38471 22053 ft 376 kts 228°
2026-05-05 12:12 -33.28578 19.36135 21626 ft 374 kts 228°
2026-05-05 12:12 -33.30170 19.33974 21232 ft 371 kts 229°
2026-05-05 12:12 -33.31832 19.31675 20822 ft 369 kts 229°
2026-05-05 12:12 -33.33502 19.29389 20410 ft 367 kts 229°
2026-05-05 12:13 -33.35142 19.27154 20005 ft 365 kts 229°
2026-05-05 12:13 -33.36811 19.24900 19592 ft 362 kts 228°
2026-05-05 12:13 -33.38455 19.22669 19183 ft 360 kts 229°
2026-05-05 12:13 -33.40096 19.20441 18776 ft 358 kts 229°
2026-05-05 12:14 -33.41785 19.18297 18536 ft 354 kts 223°
2026-05-05 12:14 -33.43480 19.16525 18200 ft 355 kts 220°
2026-05-05 12:14 -33.45332 19.14619 17783 ft 353 kts 221°
2026-05-05 12:14 -33.47117 19.12755 17380 ft 350 kts 221°
2026-05-05 12:15 -33.48741 19.11066 17013 ft 348 kts 221°
2026-05-05 12:15 -33.50610 19.09128 16590 ft 346 kts 221°
2026-05-05 12:15 -33.52400 19.07270 16183 ft 344 kts 221°
2026-05-05 12:15 -33.54143 19.05459 15785 ft 342 kts 221°
2026-05-05 12:16 -33.55937 19.03597 15375 ft 340 kts 221°
2026-05-05 12:16 -33.57681 19.01784 14974 ft 338 kts 221°
2026-05-05 12:16 -33.59415 18.99980 14719 ft 322 kts 221°
2026-05-05 12:16 -33.61041 18.98279 14442 ft 310 kts 221°
2026-05-05 12:17 -33.62612 18.96636 14171 ft 308 kts 221°
2026-05-05 12:17 -33.64188 18.94987 13904 ft 306 kts 221°
2026-05-05 12:17 -33.65787 18.93314 13633 ft 305 kts 221°
2026-05-05 12:17 -33.67362 18.91665 13365 ft 304 kts 221°
2026-05-05 12:18 -33.68893 18.90061 13104 ft 302 kts 221°
2026-05-05 12:18 -33.70410 18.88471 12845 ft 301 kts 221°
2026-05-05 12:18 -33.71999 18.86805 12572 ft 300 kts 221°
2026-05-05 12:18 -33.73550 18.85177 12306 ft 299 kts 221°
2026-05-05 12:19 -33.75056 18.83596 12046 ft 298 kts 221°
2026-05-05 12:19 -33.76587 18.81988 11781 ft 296 kts 221°
2026-05-05 12:19 -33.78120 18.80376 11515 ft 295 kts 221°
2026-05-05 12:19 -33.79600 18.78821 11258 ft 294 kts 221°
2026-05-05 12:20 -33.81117 18.77225 10969 ft 294 kts 221°
2026-05-05 12:20 -33.82569 18.75696 10493 ft 287 kts 221°
2026-05-05 12:20 -33.84013 18.74175 9980 ft 275 kts 221°
2026-05-05 12:20 -33.85385 18.72746 9486 ft 266 kts 217°
2026-05-05 12:21 -33.86943 18.71882 9003 ft 255 kts 186°
2026-05-05 12:21 -33.88655 18.72059 8553 ft 244 kts 167°
2026-05-05 12:21 -33.90229 18.72486 8069 ft 238 kts 167°
2026-05-05 12:21 -33.91836 18.72914 7571 ft 238 kts 167°
2026-05-05 12:22 -33.93406 18.73372 7063 ft 240 kts 166°
2026-05-05 12:22 -33.94994 18.73857 6449 ft 241 kts 165°
2026-05-05 12:22 -33.96592 18.74360 5837 ft 240 kts 165°
2026-05-05 12:22 -33.98141 18.74854 5339 ft 233 kts 165°
2026-05-05 12:23 -33.99667 18.75350 4889 ft 225 kts 165°
2026-05-05 12:23 -34.01127 18.75827 4499 ft 216 kts 165°
2026-05-05 12:23 -34.02583 18.76304 4223 ft 214 kts 165°
2026-05-05 12:23 -34.03986 18.76764 3958 ft 213 kts 165°
2026-05-05 12:24 -34.05416 18.77234 3704 ft 212 kts 165°
2026-05-05 12:24 -34.06824 18.77702 3503 ft 211 kts 165°
2026-05-05 12:24 -34.08218 18.78167 3381 ft 210 kts 164°
2026-05-05 12:24 -34.09605 18.78633 3253 ft 209 kts 165°
2026-05-05 12:25 -34.11018 18.79097 3118 ft 209 kts 164°
2026-05-05 12:25 -34.12458 18.79221 2994 ft 209 kts 197°
2026-05-05 12:25 -34.13601 18.78243 2939 ft 209 kts 237°
2026-05-05 12:25 -34.14200 18.76642 2931 ft 208 kts 251°
2026-05-05 12:26 -34.14655 18.75050 2901 ft 193 kts 251°
2026-05-05 12:26 -34.15042 18.73510 2730 ft 192 kts 255°
2026-05-05 12:26 -34.15379 18.71966 2509 ft 189 kts 256°
2026-05-05 12:26 -34.15686 18.70431 2424 ft 186 kts 257°
2026-05-05 12:27 -34.15940 18.68903 2418 ft 187 kts 265°
2026-05-05 12:27 -34.15665 18.67421 2440 ft 187 kts 306°
2026-05-05 12:27 -34.14683 18.66495 2447 ft 188 kts 333°
2026-05-05 12:27 -34.13501 18.65836 2414 ft 183 kts 338°
2026-05-05 12:28 -34.12376 18.65323 2484 ft 175 kts 341°
2026-05-05 12:28 -34.11253 18.64903 2464 ft 171 kts 345°
2026-05-05 12:28 -34.10114 18.64517 2440 ft 171 kts 345°
2026-05-05 12:28 -34.09010 18.64153 2247 ft 163 kts 344°
2026-05-05 12:29 -34.07947 18.63802 2052 ft 156 kts 344°
2026-05-05 12:29 -34.06934 18.63469 1839 ft 150 kts 344°
2026-05-05 12:29 -34.05951 18.63161 1640 ft 148 kts 345°
2026-05-05 12:29 -34.04996 18.62863 1452 ft 139 kts 345°
2026-05-05 12:30 -34.04074 18.62560 1268 ft 138 kts 345°
2026-05-05 12:30 -34.03167 18.62283 1078 ft 134 kts 346°
2026-05-05 12:30 -34.02280 18.61995 903 ft 134 kts 345°
2026-05-05 12:30 -34.01382 18.61721 724 ft 133 kts 344°
2026-05-05 12:31 -34.00474 18.61430 584 ft 142 kts 346°
2026-05-05 12:31 -33.99529 18.61143 395 ft 141 kts 346°
2026-05-05 12:31 -33.98579 18.60832 179 ft 139 kts 345°
2026-05-05 12:31 -33.97741 18.60568 157 ft 91 kts 345°
2026-05-05 12:32 -33.97295 18.60428 162 ft 39 kts 346°
2026-05-05 12:32 -33.97127 18.60310 161 ft 19 kts 297°
2026-05-05 12:32 -33.97094 18.60197 163 ft 9 kts 286°
2026-05-05 12:32 -33.97081 18.60138 164 ft 11 kts 282°
2026-05-05 12:33 -33.97060 18.60031 164 ft 12 kts 284°
2026-05-05 12:33 -33.97018 18.59948 164 ft 12 kts 327°
2026-05-05 12:33 -33.96933 18.59913 165 ft 10 kts 345°
2026-05-05 12:33 -33.96881 18.59896 166 ft 6 kts 345°
2026-05-05 12:34 -33.96837 18.59882 167 ft 6 kts 343°
2026-05-05 12:34 -33.96818 18.59839 167 ft 6 kts 256°
2026-05-05 12:34 -33.96830 18.59790 166 ft 1 kts 253°
2026-05-05 12:34 -33.96832 18.59782 166 ft 0 kts 253°